Year,Month,Day,Hour,Minute,Value (Times are PST for temperature in C)
2020,04,15,00,00,9.10
2020,04,15,00,01,9.10
2020,04,15,00,02,9.10
2020,04,15,00,03,9.10
2020,04,15,00,04,9.10
2020,04,15,00,05,9.10
2020,04,15,00,06,9.10
2020,04,15,00,07,9.10
2020,04,15,00,08,9.10
2020,04,15,00,09,9.10
2020,04,15,00,10,9.10
2020,04,15,00,11,9.10
2020,04,15,00,12,9.10
2020,04,15,00,13,9.10
2020,04,15,00,14,9.00
2020,04,15,00,15,9.00
2020,04,15,00,16,9.00
2020,04,15,00,17,9.00
2020,04,15,00,18,9.00
2020,04,15,00,19,9.00
2020,04,15,00,20,9.00
2020,04,15,00,21,9.00
2020,04,15,00,22,9.00
2020,04,15,00,23,9.00
2020,04,15,00,24,9.00
2020,04,15,00,25,9.00
2020,04,15,00,26,9.00
2020,04,15,00,27,9.00
2020,04,15,00,28,9.00
2020,04,15,00,29,9.10
2020,04,15,00,30,9.10
2020,04,15,00,31,9.10
2020,04,15,00,32,9.10
2020,04,15,00,33,9.10
2020,04,15,00,34,9.10
2020,04,15,00,35,9.10
2020,04,15,00,36,9.10
2020,04,15,00,37,9.20
2020,04,15,00,38,9.20
2020,04,15,00,39,9.20
2020,04,15,00,40,9.20
2020,04,15,00,41,9.20
2020,04,15,00,42,9.20
2020,04,15,00,43,9.20
2020,04,15,00,44,9.20
2020,04,15,00,45,9.10
2020,04,15,00,46,9.10
2020,04,15,00,47,9.10
2020,04,15,00,48,9.10
2020,04,15,00,49,9.10
2020,04,15,00,50,9.10
2020,04,15,00,51,9.10
2020,04,15,00,52,9.10
2020,04,15,00,53,9.10
2020,04,15,00,54,9.10
2020,04,15,00,55,9.10
2020,04,15,00,56,9.10
2020,04,15,00,57,9.10
2020,04,15,00,58,9.10
2020,04,15,00,59,9.10
2020,04,15,01,00,9.10
2020,04,15,01,01,9.10
2020,04,15,01,02,9.10
2020,04,15,01,03,9.10
2020,04,15,01,04,9.10
2020,04,15,01,05,9.10
2020,04,15,01,06,9.10
2020,04,15,01,07,9.10
2020,04,15,01,08,9.10
2020,04,15,01,09,9.10
2020,04,15,01,10,9.10
2020,04,15,01,11,9.10
2020,04,15,01,12,9.00
2020,04,15,01,13,9.00
2020,04,15,01,14,9.00
2020,04,15,01,15,8.90
2020,04,15,01,16,8.90
2020,04,15,01,17,8.90
2020,04,15,01,18,8.90
2020,04,15,01,19,8.80
2020,04,15,01,20,8.80
2020,04,15,01,21,8.80
2020,04,15,01,22,8.80
2020,04,15,01,23,8.80
2020,04,15,01,24,8.80
2020,04,15,01,25,8.90
2020,04,15,01,26,8.90
2020,04,15,01,27,8.90
2020,04,15,01,28,8.90
2020,04,15,01,29,8.90
2020,04,15,01,30,8.90
2020,04,15,01,31,8.90
2020,04,15,01,32,8.90
2020,04,15,01,33,8.90
2020,04,15,01,34,9.00
2020,04,15,01,35,9.00
2020,04,15,01,36,9.00
2020,04,15,01,37,9.00
2020,04,15,01,38,9.00
2020,04,15,01,39,9.10
2020,04,15,01,40,9.10
2020,04,15,01,41,9.10
2020,04,15,01,42,9.10
2020,04,15,01,43,9.10
2020,04,15,01,44,9.10
2020,04,15,01,45,9.10
2020,04,15,01,46,9.10
2020,04,15,01,47,9.10
2020,04,15,01,48,9.00
2020,04,15,01,49,9.00
2020,04,15,01,50,9.00
2020,04,15,01,51,9.00
2020,04,15,01,52,9.00
2020,04,15,01,53,9.00
2020,04,15,01,54,9.00
2020,04,15,01,55,8.90
2020,04,15,01,56,8.90
2020,04,15,01,57,8.90
2020,04,15,01,58,8.90
2020,04,15,01,59,8.90
2020,04,15,02,00,8.90
2020,04,15,02,01,8.90
2020,04,15,02,02,8.90
2020,04,15,02,03,8.90
2020,04,15,02,04,8.90
2020,04,15,02,05,8.90
2020,04,15,02,06,8.90
2020,04,15,02,07,8.90
2020,04,15,02,08,8.90
2020,04,15,02,09,8.90
2020,04,15,02,10,8.90
2020,04,15,02,11,8.90
2020,04,15,02,12,8.90
2020,04,15,02,13,8.90
2020,04,15,02,14,8.90
2020,04,15,02,15,8.90
2020,04,15,02,16,8.80
2020,04,15,02,17,8.80
2020,04,15,02,18,8.80
2020,04,15,02,19,8.80
2020,04,15,02,20,8.80
2020,04,15,02,21,8.80
2020,04,15,02,22,8.70
2020,04,15,02,23,8.70
2020,04,15,02,24,8.70
2020,04,15,02,25,8.70
2020,04,15,02,26,8.70
2020,04,15,02,27,8.70
2020,04,15,02,28,8.70
2020,04,15,02,29,8.70
2020,04,15,02,30,8.70
2020,04,15,02,31,8.70
2020,04,15,02,32,8.70
2020,04,15,02,33,8.80
2020,04,15,02,34,8.80
2020,04,15,02,35,8.80
2020,04,15,02,36,8.90
2020,04,15,02,37,8.90
2020,04,15,02,38,8.90
2020,04,15,02,39,8.90
2020,04,15,02,40,8.90
2020,04,15,02,41,9.00
2020,04,15,02,42,8.90
2020,04,15,02,43,9.00
2020,04,15,02,44,9.00
2020,04,15,02,45,9.00
2020,04,15,02,46,9.00
2020,04,15,02,47,9.10
2020,04,15,02,48,9.10
2020,04,15,02,49,9.10
2020,04,15,02,50,9.00
2020,04,15,02,51,9.00
2020,04,15,02,52,9.00
2020,04,15,02,53,9.00
2020,04,15,02,54,9.00
2020,04,15,02,55,9.00
2020,04,15,02,56,9.00
2020,04,15,02,57,8.90
2020,04,15,02,58,8.90
2020,04,15,02,59,8.90
2020,04,15,03,00,8.90
2020,04,15,03,01,8.90
2020,04,15,03,02,9.00
2020,04,15,03,03,9.00
2020,04,15,03,04,9.00
2020,04,15,03,05,9.00
2020,04,15,03,06,9.00
2020,04,15,03,07,9.10
2020,04,15,03,08,9.10
2020,04,15,03,09,9.10
2020,04,15,03,10,9.00
2020,04,15,03,11,9.00
2020,04,15,03,12,9.00
2020,04,15,03,13,9.00
2020,04,15,03,14,9.00
2020,04,15,03,15,9.00
2020,04,15,03,16,9.00
2020,04,15,03,17,9.00
2020,04,15,03,18,9.00
2020,04,15,03,19,9.00
2020,04,15,03,20,9.00
2020,04,15,03,21,9.00
2020,04,15,03,22,9.00
2020,04,15,03,23,9.00
2020,04,15,03,24,9.00
2020,04,15,03,25,9.00
2020,04,15,03,26,9.00
2020,04,15,03,27,8.90
2020,04,15,03,28,8.90
2020,04,15,03,29,8.90
2020,04,15,03,30,8.90
2020,04,15,03,31,8.80
2020,04,15,03,32,8.80
2020,04,15,03,33,8.80
2020,04,15,03,34,8.80
2020,04,15,03,35,8.80
2020,04,15,03,36,8.80
2020,04,15,03,37,8.80
2020,04,15,03,38,8.80
2020,04,15,03,39,8.80
2020,04,15,03,40,8.80
2020,04,15,03,41,8.80
2020,04,15,03,42,8.80
2020,04,15,03,43,8.80
2020,04,15,03,44,8.80
2020,04,15,03,45,8.80
2020,04,15,03,46,8.80
2020,04,15,03,47,8.70
2020,04,15,03,48,8.70
2020,04,15,03,49,8.70
2020,04,15,03,50,8.70
2020,04,15,03,51,8.70
2020,04,15,03,52,8.70
2020,04,15,03,53,8.70
2020,04,15,03,54,8.70
2020,04,15,03,55,8.70
2020,04,15,03,56,8.60
2020,04,15,03,57,8.60
2020,04,15,03,58,8.60
2020,04,15,03,59,8.60
2020,04,15,04,00,8.60
2020,04,15,04,01,8.60
2020,04,15,04,02,8.60
2020,04,15,04,03,8.60
2020,04,15,04,04,8.60
2020,04,15,04,05,8.60
2020,04,15,04,06,8.60
2020,04,15,04,07,8.60
2020,04,15,04,08,8.60
2020,04,15,04,09,8.60
2020,04,15,04,10,8.60
2020,04,15,04,11,8.60
2020,04,15,04,12,8.60
2020,04,15,04,13,8.60
2020,04,15,04,14,8.50
2020,04,15,04,15,8.50
2020,04,15,04,16,8.50
2020,04,15,04,17,8.50
2020,04,15,04,18,8.50
2020,04,15,04,19,8.50
2020,04,15,04,20,8.50
2020,04,15,04,21,8.50
2020,04,15,04,22,8.40
2020,04,15,04,23,8.40
2020,04,15,04,24,8.40
2020,04,15,04,25,8.40
2020,04,15,04,26,8.40
2020,04,15,04,27,8.40
2020,04,15,04,28,8.40
2020,04,15,04,29,8.40
2020,04,15,04,30,8.40
2020,04,15,04,31,8.30
2020,04,15,04,32,8.30
2020,04,15,04,33,8.30
2020,04,15,04,34,8.30
2020,04,15,04,35,8.30
2020,04,15,04,36,8.30
2020,04,15,04,37,8.30
2020,04,15,04,38,8.20
2020,04,15,04,39,8.20
2020,04,15,04,40,8.20
2020,04,15,04,41,8.20
2020,04,15,04,42,8.20
2020,04,15,04,43,8.20
2020,04,15,04,44,8.20
2020,04,15,04,45,8.20
2020,04,15,04,46,8.20
2020,04,15,04,47,8.20
2020,04,15,04,48,8.20
2020,04,15,04,49,8.20
2020,04,15,04,50,8.20
2020,04,15,04,51,8.20
2020,04,15,04,52,8.20
2020,04,15,04,53,8.20
2020,04,15,04,54,8.20
2020,04,15,04,55,8.20
2020,04,15,04,56,8.20
2020,04,15,04,57,8.20
2020,04,15,04,58,8.20
2020,04,15,04,59,8.20
2020,04,15,05,00,8.20
2020,04,15,05,01,8.20
2020,04,15,05,02,8.20
2020,04,15,05,03,8.20
2020,04,15,05,04,8.20
2020,04,15,05,05,8.30
2020,04,15,05,06,8.30
2020,04,15,05,07,8.30
2020,04,15,05,08,8.30
2020,04,15,05,09,8.30
2020,04,15,05,10,8.30
2020,04,15,05,11,8.30
2020,04,15,05,12,8.30
2020,04,15,05,13,8.30
2020,04,15,05,14,8.30
2020,04,15,05,15,8.30
2020,04,15,05,16,8.30
2020,04,15,05,17,8.30
2020,04,15,05,18,8.30
2020,04,15,05,19,8.30
2020,04,15,05,20,8.40
2020,04,15,05,21,8.40
2020,04,15,05,22,8.40
2020,04,15,05,23,8.40
2020,04,15,05,24,8.40
2020,04,15,05,25,8.40
2020,04,15,05,26,8.40
2020,04,15,05,27,8.40
2020,04,15,05,28,8.40
2020,04,15,05,29,8.40
2020,04,15,05,30,8.40
2020,04,15,05,31,8.30
2020,04,15,05,32,8.30
2020,04,15,05,33,8.30
2020,04,15,05,34,8.30
2020,04,15,05,35,8.30
2020,04,15,05,36,8.30
2020,04,15,05,37,8.30
2020,04,15,05,38,8.30
2020,04,15,05,39,8.30
2020,04,15,05,40,8.30
2020,04,15,05,41,8.30
2020,04,15,05,42,8.30
2020,04,15,05,43,8.30
2020,04,15,05,44,8.30
2020,04,15,05,45,8.30
2020,04,15,05,46,8.30
2020,04,15,05,47,8.30
2020,04,15,05,48,8.30
2020,04,15,05,49,8.30
2020,04,15,05,50,8.30
2020,04,15,05,51,8.30
2020,04,15,05,52,8.30
2020,04,15,05,53,8.30
2020,04,15,05,54,8.30
2020,04,15,05,55,8.30
2020,04,15,05,56,8.30
2020,04,15,05,57,8.30
2020,04,15,05,58,8.30
2020,04,15,05,59,8.30
2020,04,15,06,00,8.30
2020,04,15,06,01,8.30
2020,04,15,06,02,8.30
2020,04,15,06,03,8.30
2020,04,15,06,04,8.30
2020,04,15,06,05,8.30
2020,04,15,06,06,8.30
2020,04,15,06,07,8.30
2020,04,15,06,08,8.20
2020,04,15,06,09,8.20
2020,04,15,06,10,8.20
2020,04,15,06,11,8.20
2020,04,15,06,12,8.20
2020,04,15,06,13,8.20
2020,04,15,06,14,8.20
2020,04,15,06,15,8.20
2020,04,15,06,16,8.20
2020,04,15,06,17,8.20
2020,04,15,06,18,8.20
2020,04,15,06,19,8.20
2020,04,15,06,20,8.20
2020,04,15,06,21,8.20
2020,04,15,06,22,8.20
2020,04,15,06,23,8.20
2020,04,15,06,24,8.20
2020,04,15,06,25,8.20
2020,04,15,06,26,8.20
2020,04,15,06,27,8.20
2020,04,15,06,28,8.20
2020,04,15,06,29,8.20
2020,04,15,06,30,8.20
2020,04,15,06,31,8.20
2020,04,15,06,32,8.30
2020,04,15,06,33,8.30
2020,04,15,06,34,8.30
2020,04,15,06,35,8.30
2020,04,15,06,36,8.30
2020,04,15,06,37,8.30
2020,04,15,06,38,8.30
2020,04,15,06,39,8.30
2020,04,15,06,40,8.30
2020,04,15,06,41,8.30
2020,04,15,06,42,8.30
2020,04,15,06,43,8.30
2020,04,15,06,44,8.30
2020,04,15,06,45,8.30
2020,04,15,06,46,8.30
2020,04,15,06,47,8.40
2020,04,15,06,48,8.30
2020,04,15,06,49,8.30
2020,04,15,06,50,8.30
2020,04,15,06,51,8.40
2020,04,15,06,52,8.30
2020,04,15,06,53,8.40
2020,04,15,06,54,8.30
2020,04,15,06,55,8.30
2020,04,15,06,56,8.40
2020,04,15,06,57,8.30
2020,04,15,06,58,8.40
2020,04,15,06,59,8.40
2020,04,15,07,00,8.40
2020,04,15,07,01,8.40
2020,04,15,07,02,8.40
2020,04,15,07,03,8.40
2020,04,15,07,04,8.40
2020,04,15,07,05,8.40
2020,04,15,07,06,8.40
2020,04,15,07,07,8.50
2020,04,15,07,08,8.50
2020,04,15,07,09,8.50
2020,04,15,07,10,8.50
2020,04,15,07,11,8.50
2020,04,15,07,12,8.60
2020,04,15,07,13,8.60
2020,04,15,07,14,8.60
2020,04,15,07,15,8.60
2020,04,15,07,16,8.70
2020,04,15,07,17,8.80
2020,04,15,07,18,8.80
2020,04,15,07,19,8.80
2020,04,15,07,20,8.90
2020,04,15,07,21,8.90
2020,04,15,07,22,8.90
2020,04,15,07,23,8.90
2020,04,15,07,24,8.90
2020,04,15,07,25,8.90
2020,04,15,07,26,8.90
2020,04,15,07,27,8.90
2020,04,15,07,28,9.00
2020,04,15,07,29,9.00
2020,04,15,07,30,9.00
2020,04,15,07,31,9.10
2020,04,15,07,32,9.20
2020,04,15,07,33,9.20
2020,04,15,07,34,9.20
2020,04,15,07,35,9.30
2020,04,15,07,36,9.30
2020,04,15,07,37,9.30
2020,04,15,07,38,9.40
2020,04,15,07,39,9.40
2020,04,15,07,40,9.40
2020,04,15,07,41,9.50
2020,04,15,07,42,9.50
2020,04,15,07,43,9.50
2020,04,15,07,44,9.60
2020,04,15,07,45,9.60
2020,04,15,07,46,9.60
2020,04,15,07,47,9.70
2020,04,15,07,48,9.70
2020,04,15,07,49,9.70
2020,04,15,07,50,9.70
2020,04,15,07,51,9.70
2020,04,15,07,52,9.70
2020,04,15,07,53,9.70
2020,04,15,07,54,9.70
2020,04,15,07,55,9.70
2020,04,15,07,56,9.70
2020,04,15,07,57,9.70
2020,04,15,07,58,9.70
2020,04,15,07,59,9.70
2020,04,15,08,00,9.70
2020,04,15,08,01,9.70
2020,04,15,08,02,9.70
2020,04,15,08,03,9.70
2020,04,15,08,04,9.70
2020,04,15,08,05,9.70
2020,04,15,08,06,9.70
2020,04,15,08,07,9.80
2020,04,15,08,08,9.80
2020,04,15,08,09,9.80
2020,04,15,08,10,9.80
2020,04,15,08,11,9.80
2020,04,15,08,12,9.90
2020,04,15,08,13,9.90
2020,04,15,08,14,10.00
2020,04,15,08,15,10.00
2020,04,15,08,16,10.10
2020,04,15,08,17,10.10
2020,04,15,08,18,10.20
2020,04,15,08,19,10.20
2020,04,15,08,20,10.30
2020,04,15,08,21,10.30
2020,04,15,08,22,10.30
2020,04,15,08,23,10.40
2020,04,15,08,24,10.40
2020,04,15,08,25,10.50
2020,04,15,08,26,10.50
2020,04,15,08,27,10.60
2020,04,15,08,28,10.60
2020,04,15,08,29,10.60
2020,04,15,08,30,10.60
2020,04,15,08,31,10.70
2020,04,15,08,32,10.70
2020,04,15,08,33,10.70
2020,04,15,08,34,10.70
2020,04,15,08,35,10.80
2020,04,15,08,36,10.80
2020,04,15,08,37,10.90
2020,04,15,08,38,10.90
2020,04,15,08,39,10.90
2020,04,15,08,40,10.90
2020,04,15,08,41,10.90
2020,04,15,08,42,11.00
2020,04,15,08,43,11.00
2020,04,15,08,44,11.00
2020,04,15,08,45,11.00
2020,04,15,08,46,11.10
2020,04,15,08,47,11.10
2020,04,15,08,48,11.20
2020,04,15,08,49,11.30
2020,04,15,08,50,11.40
2020,04,15,08,51,11.40
2020,04,15,08,52,11.40
2020,04,15,08,53,11.40
2020,04,15,08,54,11.40
2020,04,15,08,55,11.40
2020,04,15,08,56,11.40
2020,04,15,08,57,11.40
2020,04,15,08,58,11.50
2020,04,15,08,59,11.60
2020,04,15,09,00,11.60
2020,04,15,09,01,11.60
2020,04,15,09,02,11.70
2020,04,15,09,03,11.70
2020,04,15,09,04,11.70
2020,04,15,09,05,11.70
2020,04,15,09,06,11.70
2020,04,15,09,07,11.70
2020,04,15,09,08,11.70
2020,04,15,09,09,11.70
2020,04,15,09,10,11.60
2020,04,15,09,11,11.70
2020,04,15,09,12,11.70
2020,04,15,09,13,11.80
2020,04,15,09,14,11.80
2020,04,15,09,15,11.70
2020,04,15,09,16,11.70
2020,04,15,09,17,11.70
2020,04,15,09,18,11.70
2020,04,15,09,19,11.70
2020,04,15,09,20,11.80
2020,04,15,09,21,11.80
2020,04,15,09,22,11.90
2020,04,15,09,23,11.90
2020,04,15,09,24,12.00
2020,04,15,09,25,12.00
2020,04,15,09,26,12.10
2020,04,15,09,27,12.10
2020,04,15,09,28,12.20
2020,04,15,09,29,12.20
2020,04,15,09,30,12.20
2020,04,15,09,31,12.10
2020,04,15,09,32,12.10
2020,04,15,09,33,12.10
2020,04,15,09,34,12.10
2020,04,15,09,35,12.10
2020,04,15,09,36,12.00
2020,04,15,09,37,12.10
2020,04,15,09,38,12.10
2020,04,15,09,39,12.10
2020,04,15,09,40,12.10
2020,04,15,09,41,12.10
2020,04,15,09,42,12.10
2020,04,15,09,43,12.20
2020,04,15,09,44,12.20
2020,04,15,09,45,12.20
2020,04,15,09,46,12.20
2020,04,15,09,47,12.20
2020,04,15,09,48,12.20
2020,04,15,09,49,12.20
2020,04,15,09,50,12.30
2020,04,15,09,51,12.40
2020,04,15,09,52,12.40
2020,04,15,09,53,12.40
2020,04,15,09,54,12.50
2020,04,15,09,55,12.50
2020,04,15,09,56,12.60
2020,04,15,09,57,12.60
2020,04,15,09,58,12.60
2020,04,15,09,59,12.60
2020,04,15,10,00,12.50
2020,04,15,10,01,12.50
2020,04,15,10,02,12.50
2020,04,15,10,03,12.50
2020,04,15,10,04,12.40
2020,04,15,10,05,12.30
2020,04,15,10,06,12.30
2020,04,15,10,07,12.30
2020,04,15,10,08,12.20
2020,04,15,10,09,12.20
2020,04,15,10,10,12.10
2020,04,15,10,11,12.20
2020,04,15,10,12,12.10
2020,04,15,10,13,12.10
2020,04,15,10,14,12.10
2020,04,15,10,15,12.00
2020,04,15,10,16,12.00
2020,04,15,10,17,11.90
2020,04,15,10,18,11.90
2020,04,15,10,19,12.00
2020,04,15,10,20,12.00
2020,04,15,10,21,12.10
2020,04,15,10,22,12.20
2020,04,15,10,23,12.20
2020,04,15,10,24,12.20
2020,04,15,10,25,12.20
2020,04,15,10,26,12.30
2020,04,15,10,27,12.30
2020,04,15,10,28,12.30
2020,04,15,10,29,12.30
2020,04,15,10,30,12.30
2020,04,15,10,31,12.30
2020,04,15,10,32,12.30
2020,04,15,10,33,12.30
2020,04,15,10,34,12.30
2020,04,15,10,35,12.30
2020,04,15,10,36,12.30
2020,04,15,10,37,12.40
2020,04,15,10,38,12.40
2020,04,15,10,39,12.50
2020,04,15,10,40,12.60
2020,04,15,10,41,12.60
2020,04,15,10,42,12.60
2020,04,15,10,43,12.60
2020,04,15,10,44,12.70
2020,04,15,10,45,12.60
2020,04,15,10,46,12.60
2020,04,15,10,47,12.60
2020,04,15,10,48,12.60
2020,04,15,10,49,12.50
2020,04,15,10,50,12.50
2020,04,15,10,51,12.50
2020,04,15,10,52,12.60
2020,04,15,10,53,12.60
2020,04,15,10,54,12.60
2020,04,15,10,55,12.60
2020,04,15,10,56,12.60
2020,04,15,10,57,12.70
2020,04,15,10,58,12.70
2020,04,15,10,59,12.80
2020,04,15,11,00,12.80
2020,04,15,11,01,12.80
2020,04,15,11,02,12.90
2020,04,15,11,03,13.00
2020,04,15,11,04,13.10
2020,04,15,11,05,13.20
2020,04,15,11,06,13.20
2020,04,15,11,07,13.10
2020,04,15,11,08,13.10
2020,04,15,11,09,13.00
2020,04,15,11,10,13.00
2020,04,15,11,11,13.00
2020,04,15,11,12,13.00
2020,04,15,11,13,12.90
2020,04,15,11,14,12.90
2020,04,15,11,15,12.90
2020,04,15,11,16,13.00
2020,04,15,11,17,13.00
2020,04,15,11,18,13.10
2020,04,15,11,19,13.30
2020,04,15,11,20,13.50
2020,04,15,11,21,13.70
2020,04,15,11,22,13.90
2020,04,15,11,23,14.00
2020,04,15,11,24,14.10
2020,04,15,11,25,14.20
2020,04,15,11,26,14.30
2020,04,15,11,27,14.30
2020,04,15,11,28,14.20
2020,04,15,11,29,14.10
2020,04,15,11,30,13.90
2020,04,15,11,31,13.80
2020,04,15,11,32,13.80
2020,04,15,11,33,13.80
2020,04,15,11,34,13.70
2020,04,15,11,35,13.60
2020,04,15,11,36,13.50
2020,04,15,11,37,13.40
2020,04,15,11,38,13.40
2020,04,15,11,39,13.50
2020,04,15,11,40,13.50
2020,04,15,11,41,13.60
2020,04,15,11,42,13.70
2020,04,15,11,43,13.80
2020,04,15,11,44,13.80
2020,04,15,11,45,13.90
2020,04,15,11,46,13.90
2020,04,15,11,47,13.80
2020,04,15,11,48,13.70
2020,04,15,11,49,13.70
2020,04,15,11,50,13.70
2020,04,15,11,51,13.80
2020,04,15,11,52,13.80
2020,04,15,11,53,13.80
2020,04,15,11,54,13.80
2020,04,15,11,55,13.70
2020,04,15,11,56,13.70
2020,04,15,11,57,13.70
2020,04,15,11,58,13.80
2020,04,15,11,59,13.80
2020,04,15,12,00,13.80
2020,04,15,12,01,13.70
2020,04,15,12,02,13.60
2020,04,15,12,03,13.60
2020,04,15,12,04,13.60
2020,04,15,12,05,13.60
2020,04,15,12,06,13.60
2020,04,15,12,07,13.60
2020,04,15,12,08,13.60
2020,04,15,12,09,13.60
2020,04,15,12,10,13.60
2020,04,15,12,11,13.70
2020,04,15,12,12,13.90
2020,04,15,12,13,14.00
2020,04,15,12,14,14.00
2020,04,15,12,15,14.10
2020,04,15,12,16,14.20
2020,04,15,12,17,14.20
2020,04,15,12,18,14.20
2020,04,15,12,19,14.20
2020,04,15,12,20,14.20
2020,04,15,12,21,14.30
2020,04,15,12,22,14.40
2020,04,15,12,23,14.50
2020,04,15,12,24,14.50
2020,04,15,12,25,14.60
2020,04,15,12,26,14.70
2020,04,15,12,27,14.70
2020,04,15,12,28,14.70
2020,04,15,12,29,14.70
2020,04,15,12,30,14.70
2020,04,15,12,31,14.60
2020,04,15,12,32,14.50
2020,04,15,12,33,14.40
2020,04,15,12,34,14.40
2020,04,15,12,35,14.20
2020,04,15,12,36,14.20
2020,04,15,12,37,14.20
2020,04,15,12,38,14.20
2020,04,15,12,39,14.20
2020,04,15,12,40,14.20
2020,04,15,12,41,14.20
2020,04,15,12,42,14.20
2020,04,15,12,43,14.40
2020,04,15,12,44,14.50
2020,04,15,12,45,14.60
2020,04,15,12,46,14.50
2020,04,15,12,47,14.50
2020,04,15,12,48,14.50
2020,04,15,12,49,14.50
2020,04,15,12,50,14.50
2020,04,15,12,51,14.60
2020,04,15,12,52,14.60
2020,04,15,12,53,14.70
2020,04,15,12,54,14.80
2020,04,15,12,55,14.80
2020,04,15,12,56,14.80
2020,04,15,12,57,14.90
2020,04,15,12,58,15.00
2020,04,15,12,59,15.10
2020,04,15,13,00,15.20
2020,04,15,13,01,15.20
2020,04,15,13,02,15.10
2020,04,15,13,03,15.10
2020,04,15,13,04,15.10
2020,04,15,13,05,15.00
2020,04,15,13,06,14.90
2020,04,15,13,07,14.80
2020,04,15,13,08,14.80
2020,04,15,13,09,14.80
2020,04,15,13,10,14.80
2020,04,15,13,11,14.80
2020,04,15,13,12,14.80
2020,04,15,13,13,14.90
2020,04,15,13,14,14.90
2020,04,15,13,15,15.00
2020,04,15,13,16,15.00
2020,04,15,13,17,15.00
2020,04,15,13,18,15.10
2020,04,15,13,19,15.10
2020,04,15,13,20,15.10
2020,04,15,13,21,15.10
2020,04,15,13,22,15.10
2020,04,15,13,23,15.20
2020,04,15,13,24,15.20
2020,04,15,13,25,15.20
2020,04,15,13,26,15.10
2020,04,15,13,27,15.00
2020,04,15,13,28,14.90
2020,04,15,13,29,14.80
2020,04,15,13,30,14.90
2020,04,15,13,31,14.90
2020,04,15,13,32,14.90
2020,04,15,13,33,15.00
2020,04,15,13,34,15.00
2020,04,15,13,35,15.10
2020,04,15,13,36,15.10
2020,04,15,13,37,15.10
2020,04,15,13,38,15.30
2020,04,15,13,39,15.30
2020,04,15,13,40,15.30
2020,04,15,13,41,15.40
2020,04,15,13,42,15.50
2020,04,15,13,43,15.60
2020,04,15,13,44,15.60
2020,04,15,13,45,15.60
2020,04,15,13,46,15.50
2020,04,15,13,47,15.40
2020,04,15,13,48,15.30
2020,04,15,13,49,15.40
2020,04,15,13,50,15.40
2020,04,15,13,51,15.30
2020,04,15,13,52,15.20
2020,04,15,13,53,15.20
2020,04,15,13,54,15.20
2020,04,15,13,55,15.10
2020,04,15,13,56,15.00
2020,04,15,13,57,14.90
2020,04,15,13,58,14.90
2020,04,15,13,59,14.90
2020,04,15,14,00,14.90
2020,04,15,14,01,14.90
2020,04,15,14,02,14.80
2020,04,15,14,03,14.80
2020,04,15,14,04,14.60
2020,04,15,14,05,14.40
2020,04,15,14,06,14.30
2020,04,15,14,07,14.20
2020,04,15,14,08,14.30
2020,04,15,14,09,14.30
2020,04,15,14,10,14.20
2020,04,15,14,11,14.20
2020,04,15,14,12,14.20
2020,04,15,14,13,14.20
2020,04,15,14,14,14.20
2020,04,15,14,15,14.20
2020,04,15,14,16,14.10
2020,04,15,14,17,14.10
2020,04,15,14,18,14.10
2020,04,15,14,19,14.10
2020,04,15,14,20,14.20
2020,04,15,14,21,14.30
2020,04,15,14,22,14.50
2020,04,15,14,23,14.60
2020,04,15,14,24,14.60
2020,04,15,14,25,14.60
2020,04,15,14,26,14.50
2020,04,15,14,27,14.40
2020,04,15,14,28,14.30
2020,04,15,14,29,14.30
2020,04,15,14,30,14.30
2020,04,15,14,31,14.40
2020,04,15,14,32,14.50
2020,04,15,14,33,14.50
2020,04,15,14,34,14.50
2020,04,15,14,35,14.60
2020,04,15,14,36,14.70
2020,04,15,14,37,14.70
2020,04,15,14,38,14.80
2020,04,15,14,39,15.00
2020,04,15,14,40,15.10
2020,04,15,14,41,15.20
2020,04,15,14,42,15.30
2020,04,15,14,43,15.20
2020,04,15,14,44,15.20
2020,04,15,14,45,15.10
2020,04,15,14,46,15.00
2020,04,15,14,47,14.90
2020,04,15,14,48,14.80
2020,04,15,14,49,14.80
2020,04,15,14,50,14.80
2020,04,15,14,51,14.90
2020,04,15,14,52,15.00
2020,04,15,14,53,15.10
2020,04,15,14,54,15.30
2020,04,15,14,55,15.50
2020,04,15,14,56,15.60
2020,04,15,14,57,15.70
2020,04,15,14,58,15.80
2020,04,15,14,59,15.90
2020,04,15,15,00,16.00
2020,04,15,15,01,16.20
2020,04,15,15,02,16.30
2020,04,15,15,03,16.20
2020,04,15,15,04,16.20
2020,04,15,15,05,16.30
2020,04,15,15,06,16.30
2020,04,15,15,07,16.30
2020,04,15,15,08,16.30
2020,04,15,15,09,16.40
2020,04,15,15,10,16.40
2020,04,15,15,11,16.30
2020,04,15,15,12,16.30
2020,04,15,15,13,16.30
2020,04,15,15,14,16.30
2020,04,15,15,15,16.30
2020,04,15,15,16,16.30
2020,04,15,15,17,16.20
2020,04,15,15,18,16.00
2020,04,15,15,19,15.70
2020,04,15,15,20,15.50
2020,04,15,15,21,15.30
2020,04,15,15,22,15.20
2020,04,15,15,23,15.00
2020,04,15,15,24,15.00
2020,04,15,15,25,14.90
2020,04,15,15,26,14.90
2020,04,15,15,27,14.90
2020,04,15,15,28,15.00
2020,04,15,15,29,15.00
2020,04,15,15,30,15.00
2020,04,15,15,31,15.10
2020,04,15,15,32,15.20
2020,04,15,15,33,15.30
2020,04,15,15,34,15.50
2020,04,15,15,35,15.60
2020,04,15,15,36,15.70
2020,04,15,15,37,15.80
2020,04,15,15,38,15.80
2020,04,15,15,39,15.90
2020,04,15,15,40,16.00
2020,04,15,15,41,16.00
2020,04,15,15,42,15.90
2020,04,15,15,43,15.90
2020,04,15,15,44,15.80
2020,04,15,15,45,15.80
2020,04,15,15,46,15.90
2020,04,15,15,47,16.00
2020,04,15,15,48,16.00
2020,04,15,15,49,16.10
2020,04,15,15,50,16.10
2020,04,15,15,51,16.10
2020,04,15,15,52,16.10
2020,04,15,15,53,16.00
2020,04,15,15,54,16.00
2020,04,15,15,55,16.00
2020,04,15,15,56,16.00
2020,04,15,15,57,16.10
2020,04,15,15,58,16.10
2020,04,15,15,59,16.10
2020,04,15,16,00,16.10
2020,04,15,16,01,16.10
2020,04,15,16,02,16.00
2020,04,15,16,03,15.90
2020,04,15,16,04,15.90
2020,04,15,16,05,15.80
2020,04,15,16,06,15.70
2020,04,15,16,07,15.70
2020,04,15,16,08,15.60
2020,04,15,16,09,15.60
2020,04,15,16,10,15.50
2020,04,15,16,11,15.50
2020,04,15,16,12,15.40
2020,04,15,16,13,15.40
2020,04,15,16,14,15.30
2020,04,15,16,15,15.30
2020,04,15,16,16,15.20
2020,04,15,16,17,15.10
2020,04,15,16,18,15.10
2020,04,15,16,19,15.10
2020,04,15,16,20,15.00
2020,04,15,16,21,15.00
2020,04,15,16,22,14.90
2020,04,15,16,23,14.80
2020,04,15,16,24,14.90
2020,04,15,16,25,15.00
2020,04,15,16,26,15.10
2020,04,15,16,27,15.20
2020,04,15,16,28,15.20
2020,04,15,16,29,15.20
2020,04,15,16,30,15.20
2020,04,15,16,31,15.20
2020,04,15,16,32,15.10
2020,04,15,16,33,15.10
2020,04,15,16,34,15.10
2020,04,15,16,35,15.10
2020,04,15,16,36,15.20
2020,04,15,16,37,15.30
2020,04,15,16,38,15.30
2020,04,15,16,39,15.30
2020,04,15,16,40,15.30
2020,04,15,16,41,15.30
2020,04,15,16,42,15.30
2020,04,15,16,43,15.30
2020,04,15,16,44,15.30
2020,04,15,16,45,15.30
2020,04,15,16,46,15.30
2020,04,15,16,47,15.30
2020,04,15,16,48,15.40
2020,04,15,16,49,15.40
2020,04,15,16,50,15.40
2020,04,15,16,51,15.50
2020,04,15,16,52,15.60
2020,04,15,16,53,15.70
2020,04,15,16,54,15.70
2020,04,15,16,55,15.70
2020,04,15,16,56,15.80
2020,04,15,16,57,15.80
2020,04,15,16,58,15.80
2020,04,15,16,59,15.80
2020,04,15,17,00,15.80
2020,04,15,17,01,15.80
2020,04,15,17,02,15.80
2020,04,15,17,03,15.80
2020,04,15,17,04,15.90
2020,04,15,17,05,15.90
2020,04,15,17,06,16.00
2020,04,15,17,07,16.10
2020,04,15,17,08,16.20
2020,04,15,17,09,16.30
2020,04,15,17,10,16.30
2020,04,15,17,11,16.40
2020,04,15,17,12,16.50
2020,04,15,17,13,16.50
2020,04,15,17,14,16.60
2020,04,15,17,15,16.60
2020,04,15,17,16,16.60
2020,04,15,17,17,16.70
2020,04,15,17,18,16.70
2020,04,15,17,19,16.70
2020,04,15,17,20,16.70
2020,04,15,17,21,16.60
2020,04,15,17,22,16.60
2020,04,15,17,23,16.50
2020,04,15,17,24,16.60
2020,04,15,17,25,16.60
2020,04,15,17,26,16.60
2020,04,15,17,27,16.60
2020,04,15,17,28,16.60
2020,04,15,17,29,16.60
2020,04,15,17,30,16.60
2020,04,15,17,31,16.60
2020,04,15,17,32,16.60
2020,04,15,17,33,16.50
2020,04,15,17,34,16.50
2020,04,15,17,35,16.40
2020,04,15,17,36,16.40
2020,04,15,17,37,16.30
2020,04,15,17,38,16.20
2020,04,15,17,39,16.20
2020,04,15,17,40,16.20